SCP
0 0 0 0 0 0 0 0 0 0 0 0 0 0 0 0 0 0 0 0 0 1 1 0 0 0 0 0 0 0 0 0 0 0 0 0 0 0 0 0 0 0 0
0 0 0 0 0 0 0 0 0 1 0 0 1 1 0 0 0 0 0 0 0 0 0 0 0 0 0 0 0 0 0 0 0 0 0 0 0 0 0 0 0 0 0
0 0 0 0 0 0 0 0 0 0 0 1 1 1 0 0 0 0 0 0 0 0 0 0 0 0 0 0 0 0 0 0 0 0 0 0 0 0 0 0 0 0 0
0 0 0 0 0 0 0 0 0 0 0 0 1 0 0 0 0 0 0 0 0 0 0 0 0 0 0 0 0 0 0 0 0 0 0 0 0 0 0 0 0 0 0
0 0 0 0 0 1 0 0 0 0 0 0 0 0 0 0 0 0 0 0 0 0 0 0 0 0 0 0 0 0 0 0 0 0 0 0 0 0 0 0 0 0 0
0 0 0 0 1 1 1 1 0 0 0 0 0 0 0 0 0 0 0 0 0 0 0 0 0 0 0 0 0 0 0 0 0 0 0 0 0 0 0 0 0 0 0
0 0 0 0 0 1 1 1 1 1 1 0 0 0 0 0 0 0 0 0 0 0 0 0 0 0 0 0 0 0 0 0 0 0 0 0 0 0 0 0 0 0 0
0 0 0 0 0 1 1 1 1 1 1 0 0 0 0 0 0 0 0 0 0 0 0 0 0 0 0 0 0 0 0 0 0 0 0 0 0 0 0 0 0 0 0
0 0 0 0 0 0 0 1 1 1 1 0 0 0 0 0 0 0 0 0 0 0 0 0 0 0 0 0 0 0 0 0 0 0 0 0 0 0 0 0 0 0 0
0 0 0 0 0 0 0 0 0 0 0 0 0 0 0 0 0 0 0 0 0 0 0 0 0 0 0 0 0 0 0 0 0 0 0 0 0 0 0 0 0 0 0
0 0 0 0 0 0 0 0 0 0 0 0 0 0 0 0 0 0 0 0 0 0 0 0 0 0 0 0 0 0 0 0 0 0 0 0 0 0 0 0 0 0 0
0 0 0 0 0 0 0 0 0 0 0 0 0 0 0 0 0 0 0 0 0 0 0 0 0 0 0 0 0 0 0 0 0 0 0 0 0 0 0 0 0 0 0
0 0 0 0 0 0 0 0 0 0 0 0 0 0 0 0 0 0 0 0 0 0 0 0 0 0 0 0 0 0 0 0 0 0 0 0 0 0 0 0 0 0 0
0 0 0 0 0 0 0 0 0 0 0 0 0 0 0 0 0 0 0 0 0 0 0 0 0 0 0 0 0 0 0 0 0 0 0 0 0 0 0 0 0 0 0
0 0 0 0 0 0 0 0 0 0 0 0 0 0 0 0 0 0 0 0 0 0 0 0 0 0 0 0 0 0 0 0 0 0 0 0 0 0 0 0 0 0 0
0 0 0 0 0 0 0 0 0 0 0 0 0 0 0 0 0 0 0 0 0 0 0 0 0 0 0 0 0 0 0 0 0 0 0 0 0 0 0 0 0 0 0
0 0 0 0 0 0 0 0 0 0 0 0 0 0 0 0 0 0 0 0 0 0 0 0 0 0 0 0 0 0 0 0 0 0 0 0 0 0 0 0 0 0 0
0 0 0 0 0 0 0 0 0 0 0 0 0 0 0 0 0 0 0 0 0 0 0 0 0 0 0 0 0 0 0 0 0 0 0 0 0 0 0 0 0 0 0
0 0 0 0 0 0 0 0 0 0 0 0 0 0 0 0 0 0 0 0 0 0 0 0 0 0 0 0 0 0 0 0 0 0 0 0 0 0 0 0 0 0 0
0 0 0 0 0 0 0 0 0 0 0 0 0 0 0 0 0 0 0 0 0 0 0 0 0 0 0 0 0 0 0 0 0 0 0 0 0 0 0 0 0 0 0
0 0 0 0 0 0 0 0 0 0 0 0 0 0 0 0 0 0 0 0 0 0 0 0 0 0 0 0 0 0 0 0 0 0 0 0 0 0 0 0 0 0 0
0 0 0 0 0 0 0 0 0 0 0 0 0 0 0 0 0 0 0 0 0 0 0 0 0 0 0 0 0 0 0 0 0 0 0 0 0 0 0 0 0 0 0
0 0 0 0 0 0 0 0 0 0 0 0 0 0 0 0 0 0 0 0 0 0 0 0 0 0 0 0 0 0 0 0 0 0 0 0 0 0 0 0 0 0 0
0 0 0 0 0 0 0 0 0 0 0 0 0 0 0 0 0 0 0 0 0 0 0 0 0 0 0 0 0 0 0 0 0 0 0 0 0 0 0 0 0 0 0
0 0 0 0 0 0 0 0 0 0 0 0 0 0 0 0 0 0 0 0 0 0 0 0 0 0 0 0 0 0 0 0 0 0 0 0 0 0 0 0 0 0 0
0 0 0 0 0 0 0 0 0 0 0 0 0 0 0 0 0 0 0 0 0 0 0 0 0 0 0 0 0 0 0 0 0 0 0 0 0 0 0 0 0 0 0
Wind_Speed
10 13 17 15 15 14 13 12 11 11 11 11 11 11 10 10 10 10 10 11 11 12 11 11 10 10 10 10 10 10 10 10 10 10 10 10 11 12 13 11 7 10 12
13 15 15 14 16 15 13 12 12 11 11 11 11 11 11 10 10 10 11 11 11 11 10 10 9 8 8 8 8 8 9 9 9 9 7 8 10 12 13 13 12 10 13
13 15 16 13 15 15 14 13 12 12 12 12 12 12 11 10 9 9 9 9 10 9 9 8 8 7 7 7 7 7 8 8 8 7 3 7 10 12 13 13 12 13 14
13 14 15 13 14 15 15 13 13 12 12 12 13 13 11 9 8 7 7 7 8 8 8 7 7 7 7 7 7 7 7 8 7 3 4 6 7 11 12 13 13 13 14
12 12 12 11 14 15 14 14 13 12 12 13 14 12 11 8 7 6 6 6 7 7 7 7 6 6 7 7 7 7 7 7 5 4 6 5 7 11 13 13 13 14 14
12 12 11 10 13 13 13 13 13 13 13 14 13 12 10 8 7 6 6 6 7 7 7 7 7 7 7 7 7 7 7 6 2 5 5 5 7 11 13 13 12 12 12
13 11 12 11 11 12 13 14 13 14 14 14 12 11 10 9 8 8 8 8 7 7 7 7 8 8 8 8 8 7 7 6 5 6 5 6 8 9 10 11 11 11 11
12 11 11 11 10 11 12 13 13 14 14 13 11 11 10 10 9 9 9 9 8 8 8 9 8 8 8 8 8 8 7 4 5 6 5 6 7 8 8 8 8 9 9
10 11 11 13 13 11 10 11 12 12 11 11 11 10 10 10 10 9 9 9 9 9 9 9 9 9 9 8 8 8 8 6 5 4 5 5 6 7 7 7 7 7 8
10 12 12 12 13 14 13 12 11 11 10 10 10 9 9 9 9 8 8 9 10 10 10 9 9 9 9 8 8 8 6 3 5 5 3 5 6 6 6 6 6 6 7
12 13 13 14 14 14 14 12 12 11 11 11 10 10 11 10 10 9 10 9 11 11 11 10 9 9 8 8 7 6 3 3 4 3 4 5 4 4 5 5 5 6 7
18 18 15 15 15 14 11 11 11 11 11 12 10 12 10 9 7 8 8 8 9 10 10 10 10 8 4 4 5 3 2 4 3 3 4 5 3 3 4 4 5 6 7
17 17 17 16 15 15 11 10 8 8 9 11 13 13 10 9 7 7 6 7 9 9 8 8 7 4 3 2 2 2 3 2 2 2 3 5 2 2 4 5 6 6 7
14 17 17 17 16 16 14 11 10 9 9 9 12 14 11 8 9 8 7 8 7 6 6 5 4 5 4 4 3 3 2 1 1 1 2 5 4 1 4 5 6 7 8
16 17 17 18 18 16 15 12 12 12 11 12 11 13 14 10 10 10 8 7 8 6 6 5 5 6 5 4 3 3 3 2 2 2 2 3 5 0 4 6 6 7 8
18 18 17 19 20 18 16 14 13 12 12 12 12 14 16 12 11 10 10 9 8 7 6 6 6 6 4 4 4 3 3 3 3 3 3 2 4 4 3 5 6 7 8
17 17 17 19 19 20 20 18 13 12 12 12 12 15 16 14 13 11 10 9 8 7 7 6 7 5 4 4 5 4 3 3 4 4 4 3 3 5 5 5 6 7 8
15 15 16 14 18 21 20 18 14 13 14 13 12 13 17 16 15 12 10 10 9 8 7 7 7 6 5 5 4 4 3 3 4 5 5 4 4 4 6 8 8 8 8
14 14 15 17 19 20 20 16 15 13 14 12 12 12 15 17 16 13 11 10 11 8 8 8 7 6 6 6 4 3 3 4 4 5 5 5 4 4 5 8 10 9 8
10 11 13 14 17 16 14 13 12 14 13 13 13 13 16 15 17 15 11 12 12 10 9 9 9 6 5 6 5 4 3 3 3 4 5 5 5 5 5 4 4 5 7
7 7 9 11 12 12 11 12 13 14 13 13 13 15 17 17 18 16 12 13 13 12 13 13 9 9 7 7 5 4 3 3 4 4 4 5 5 5 5 4 3 2 3
10 9 8 8 9 11 11 10 9 10 10 12 11 13 16 17 17 15 16 14 15 13 15 15 12 8 7 9 6 5 5 4 5 5 5 5 6 5 5 4 3 3 3
15 14 11 9 6 8 10 8 7 7 7 9 12 12 15 16 16 16 17 15 15 15 14 17 16 15 10 10 7 6 6 7 5 6 8 6 6 5 5 4 5 5 5
17 15 15 13 8 4 6 9 11 10 10 10 9 10 12 15 16 17 18 17 16 14 15 16 16 14 13 11 7 5 3 2 6 6 7 8 8 7 7 5 6 6 6
18 17 16 16 13 8 4 7 10 11 10 8 7 10 12 12 15 17 18 17 17 15 16 17 16 16 13 12 10 7 5 3 4 5 6 8 8 8 7 7 5 6 7
19 18 18 18 17 14 8 5 8 11 11 11 10 9 9 9 12 17 17 17 17 15 17 16 17 19 15 14 11 9 8 7 7 6 5 6 7 7 8 6 7 6 6
Wind_Direction
181 173 164 180 172 168 164 158 151 146 142 139 135 129 123 116 110 106 107 103 99 95 92 88 83 78 74 71 66 62 60 60 61 65 69 76 88 82 70 51 45 63 52
166 170 165 179 174 172 168 162 158 156 153 150 145 137 130 124 117 111 109 108 104 100 94 87 82 77 74 70 66 65 65 65 64 62 68 91 89 85 77 65 53 56 54
166 169 172 179 176 175 172 168 166 166 164 159 150 139 133 129 126 120 113 111 108 102 96 90 85 81 77 70 66 67 70 72 71 65 73 99 98 92 84 75 67 61 57
171 172 177 174 178 177 176 175 175 177 176 168 155 144 139 139 140 138 129 119 114 108 102 95 89 83 76 71 67 67 68 70 69 64 96 89 96 96 90 81 73 66 61
175 179 177 176 182 181 180 180 183 186 184 170 156 148 145 151 159 158 150 137 123 117 110 103 97 88 79 72 68 67 66 65 60 85 91 91 88 92 91 84 77 70 62
175 182 179 185 188 186 185 186 188 188 178 163 156 152 152 164 172 171 165 148 133 127 121 116 108 98 87 77 71 70 65 52 61 81 83 83 85 85 86 83 77 72 65
175 184 185 185 192 191 190 188 185 179 170 164 162 159 163 175 181 180 174 159 149 142 136 128 119 110 99 89 81 76 66 48 63 76 72 74 74 79 80 78 74 70 65
180 185 188 183 190 187 185 182 178 174 171 171 172 171 175 182 186 185 178 170 163 155 145 135 127 118 110 101 92 84 73 56 84 77 73 72 62 75 74 72 71 67 65
189 192 194 191 189 186 183 180 179 177 176 177 180 180 179 181 186 184 180 176 170 160 148 139 132 124 116 107 98 89 80 62 88 80 73 61 45 67 67 64 65 66 66
200 203 200 200 197 195 193 187 185 182 180 180 184 180 172 173 182 177 178 179 173 161 151 145 136 126 116 107 100 92 85 83 82 87 74 58 45 66 68 66 67 70 71
210 210 207 205 205 204 202 196 195 190 186 183 185 171 171 188 188 182 186 180 172 161 155 149 138 125 117 108 99 97 91 74 80 68 60 37 46 71 78 79 80 81 79
210 208 208 209 207 207 205 203 206 204 201 198 197 187 189 190 187 186 175 181 164 156 158 151 136 130 140 130 117 130 86 83 83 70 55 17 37 80 93 95 93 91 88
214 206 208 210 209 208 205 205 204 202 204 202 199 191 186 183 181 187 179 172 166 164 164 149 148 161 160 141 136 109 95 94 83 83 61 360 356 104 115 111 105 100 97
221 214 209 207 209 209 207 205 204 201 200 198 196 191 186 185 187 186 186 180 174 172 164 161 160 158 151 141 133 123 121 116 104 97 67 345 328 150 131 123 115 109 105
229 222 214 208 209 208 208 208 207 205 202 200 196 194 194 191 190 187 186 183 181 173 172 168 166 162 159 154 150 147 138 123 129 142 124 358 337 355 132 127 121 117 110
232 227 216 211 210 208 208 210 209 208 204 202 199 198 197 196 192 189 187 187 184 179 173 171 167 166 166 163 162 157 159 152 147 157 146 124 27 25 110 121 119 116 108
236 232 222 216 212 211 211 212 211 209 206 205 202 201 198 198 194 190 189 190 187 177 168 164 165 169 169 170 166 161 162 164 158 155 154 150 119 59 69 99 104 102 96
243 236 228 216 214 214 213 213 211 209 207 207 204 201 200 200 194 191 190 191 182 175 174 170 170 172 177 179 173 166 163 159 160 159 155 153 139 121 87 72 76 82 81
250 242 232 220 217 216 215 215 214 211 210 210 207 203 201 199 196 192 192 187 178 178 180 175 177 179 179 175 165 159 161 161 160 164 156 148 137 129 110 83 68 62 65
263 250 240 227 222 218 215 217 217 216 214 213 211 207 201 199 196 195 192 185 179 179 181 181 176 179 176 159 143 137 143 155 171 168 162 149 143 137 129 119 102 78 63
294 270 254 240 226 214 210 210 213 216 214 214 214 210 206 202 198 198 192 186 184 186 185 181 171 174 173 163 150 144 139 167 180 179 176 165 157 153 143 137 129 127 110
343 330 305 272 241 219 214 212 219 225 225 221 217 215 212 208 203 201 196 189 189 189 187 185 179 177 173 186 183 161 169 183 203 197 190 184 173 170 169 160 145 147 147
10 359 347 327 286 241 224 217 214 225 236 223 219 217 214 212 209 208 205 197 195 193 191 190 189 184 183 190 215 203 185 188 164 183 201 196 189 188 184 174 166 159 158
16 12 9 2 347 298 234 221 218 221 227 230 226 223 217 213 214 212 211 206 201 200 197 194 194 195 190 188 198 231 257 182 167 167 190 205 206 208 200 188 178 168 167
23 20 18 18 15 357 289 238 233 239 247 251 240 228 220 213 216 217 216 211 207 205 203 196 194 198 198 196 188 179 191 202 210 174 176 184 200 209 204 198 186 176 174
27 25 24 24 22 13 353 299 261 256 258 258 251 240 226 216 215 218 220 217 214 210 207 201 198 200 202 204 197 189 182 182 191 195 183 173 186 185 192 194 191 182 178